Time,TemperatureF,DewpointF,PressureIn,WindDirection,WindDirectionDegrees,WindSpeedMPH,WindSpeedGustMPH,Humidity,HourlyPrecipIn,Conditions,Clouds,dailyrainin,SoftwareType,DateUTC
2013-05-30 00:10:00,68.1,65.0,30.00,South,188,0.0,3.0,90,0.00,,,0.00,weatherlink.com 1.10,2013-05-30 04:10:00,
2013-05-30 00:25:00,67.9,65.0,30.00,South,180,1.0,3.0,91,0.00,,,0.00,weatherlink.com 1.10,2013-05-30 04:25:00,
2013-05-30 00:40:00,68.0,66.0,30.01,South,187,1.0,4.0,92,0.00,,,0.00,weatherlink.com 1.10,2013-05-30 04:40:00,
2013-05-30 00:55:00,68.4,66.0,30.01,South,183,1.0,4.0,91,0.00,,,0.00,weatherlink.com 1.10,2013-05-30 04:55:00,
2013-05-30 01:10:00,68.6,66.0,30.00,South,184,0.0,3.0,90,0.00,,,0.00,weatherlink.com 1.10,2013-05-30 05:10:00,
2013-05-30 01:25:00,68.4,65.0,30.00,SE,146,3.0,6.0,90,0.00,,,0.00,weatherlink.com 1.10,2013-05-30 05:25:00,
2013-05-30 01:40:00,69.2,65.0,30.01,South,188,0.0,5.0,86,0.00,,,0.00,weatherlink.com 1.10,2013-05-30 05:40:00,
2013-05-30 01:55:00,70.1,64.0,30.01,SSW,205,0.0,6.0,81,0.00,,,0.00,weatherlink.com 1.10,2013-05-30 05:55:00,
2013-05-30 02:10:00,69.8,64.0,30.01,SSW,204,0.0,6.0,82,0.00,,,0.00,weatherlink.com 1.10,2013-05-30 06:10:00,
2013-05-30 02:25:00,69.7,63.0,30.01,South,188,2.0,8.0,80,0.00,,,0.00,weatherlink.com 1.10,2013-05-30 06:25:00,
2013-05-30 02:40:00,69.3,63.0,30.02,SSW,207,2.0,5.0,81,0.00,,,0.00,weatherlink.com 1.10,2013-05-30 06:40:00,
2013-05-30 02:55:00,68.9,63.0,30.02,SSW,209,2.0,6.0,81,0.00,,,0.00,weatherlink.com 1.10,2013-05-30 06:55:00,
2013-05-30 03:10:00,68.8,63.0,30.03,SSW,205,2.0,6.0,81,0.00,,,0.00,weatherlink.com 1.10,2013-05-30 07:10:00,
2013-05-30 03:25:00,68.9,62.0,30.03,SSW,205,0.0,7.0,79,0.00,,,0.00,weatherlink.com 1.10,2013-05-30 07:25:00,
2013-05-30 03:40:00,68.7,62.0,30.03,SSW,198,2.0,6.0,80,0.00,,,0.00,weatherlink.com 1.10,2013-05-30 07:40:00,
2013-05-30 03:55:00,68.2,62.0,30.03,SSW,200,1.0,5.0,81,0.00,,,0.00,weatherlink.com 1.10,2013-05-30 07:55:00,
2013-05-30 04:10:00,67.9,62.0,30.03,South,181,1.0,6.0,81,0.00,,,0.00,weatherlink.com 1.10,2013-05-30 08:10:00,
2013-05-30 04:25:00,67.5,62.0,30.04,South,188,2.0,3.0,81,0.00,,,0.00,weatherlink.com 1.10,2013-05-30 08:25:00,
2013-05-30 04:40:00,67.1,61.0,30.04,South,183,1.0,4.0,82,0.00,,,0.00,weatherlink.com 1.10,2013-05-30 08:40:00,
2013-05-30 04:55:00,66.9,61.0,30.04,South,171,5.0,6.0,82,0.00,,,0.00,weatherlink.com 1.10,2013-05-30 08:55:00,
2013-05-30 05:10:00,67.3,61.0,30.05,SSW,201,1.0,7.0,81,0.00,,,0.00,weatherlink.com 1.10,2013-05-30 09:10:00,
2013-05-30 05:25:00,67.3,61.0,30.05,SSW,198,2.0,4.0,81,0.00,,,0.00,weatherlink.com 1.10,2013-05-30 09:25:00,
2013-05-30 05:40:00,66.9,61.0,30.06,SSW,192,0.0,6.0,82,0.00,,,0.00,weatherlink.com 1.10,2013-05-30 09:40:00,
2013-05-30 05:55:00,66.7,61.0,30.06,South,187,3.0,6.0,82,0.00,,,0.00,weatherlink.com 1.10,2013-05-30 09:55:00,
2013-05-30 06:10:00,66.3,61.0,30.06,South,183,2.0,4.0,84,0.00,,,0.00,weatherlink.com 1.10,2013-05-30 10:10:00,
2013-05-30 06:26:00,66.5,62.0,30.06,South,179,3.0,5.0,84,0.00,,,0.00,weatherlink.com 1.10,2013-05-30 10:26:00,
2013-05-30 06:40:00,66.6,62.0,30.06,South,188,3.0,4.0,84,0.00,,,0.00,weatherlink.com 1.10,2013-05-30 10:40:00,
2013-05-30 06:55:00,67.0,62.0,30.06,South,186,2.0,5.0,84,0.00,,,0.00,weatherlink.com 1.10,2013-05-30 10:55:00,
2013-05-30 07:10:00,67.7,62.0,30.07,South,171,3.0,5.0,83,0.00,,,0.00,weatherlink.com 1.10,2013-05-30 11:10:00,
2013-05-30 07:26:00,68.8,64.0,30.07,South,180,1.0,4.0,83,0.00,,,0.00,weatherlink.com 1.10,2013-05-30 11:26:00,
2013-05-30 07:41:00,70.2,64.0,30.07,South,180,2.0,5.0,80,0.00,,,0.00,weatherlink.com 1.10,2013-05-30 11:41:00,
2013-05-30 07:56:00,71.5,64.0,30.08,South,183,1.0,4.0,78,0.00,,,0.00,weatherlink.com 1.10,2013-05-30 11:56:00,
2013-05-30 08:11:00,74.2,66.0,30.09,South,187,1.0,4.0,75,0.00,,,0.00,weatherlink.com 1.10,2013-05-30 12:11:00,
2013-05-30 08:26:00,76.2,66.0,30.08,SSW,198,2.0,6.0,71,0.00,,,0.00,weatherlink.com 1.10,2013-05-30 12:26:00,
2013-05-30 08:41:00,77.6,67.0,30.09,SW,217,3.0,7.0,69,0.00,,,0.00,weatherlink.com 1.10,2013-05-30 12:41:00,
2013-05-30 08:56:00,79.0,67.0,30.09,West,275,4.0,4.0,67,0.00,,,0.00,weatherlink.com 1.10,2013-05-30 12:56:00,
2013-05-30 09:11:00,80.3,67.0,30.09,SW,219,4.0,7.0,65,0.00,,,0.00,weatherlink.com 1.10,2013-05-30 13:11:00,
2013-05-30 09:26:00,81.4,67.0,30.09,WSW,247,1.0,6.0,62,0.00,,,0.00,weatherlink.com 1.10,2013-05-30 13:26:00,
2013-05-30 09:41:00,81.8,68.0,30.09,West,265,3.0,7.0,63,0.00,,,0.00,weatherlink.com 1.10,2013-05-30 13:41:00,
2013-05-30 09:56:00,81.6,68.0,30.09,WSW,254,0.0,8.0,63,0.00,,,0.00,weatherlink.com 1.10,2013-05-30 13:56:00,
2013-05-30 10:11:00,80.6,67.0,30.09,WSW,243,1.0,8.0,64,0.00,,,0.00,weatherlink.com 1.10,2013-05-30 14:11:00,
2013-05-30 10:26:00,80.3,68.0,30.09,SSW,213,0.0,3.0,66,0.00,,,0.00,weatherlink.com 1.10,2013-05-30 14:26:00,
2013-05-30 10:41:00,81.6,69.0,30.09,SW,217,0.0,3.0,65,0.00,,,0.00,weatherlink.com 1.10,2013-05-30 14:41:00,
2013-05-30 10:56:00,83.5,69.0,30.09,South,180,4.0,6.0,61,0.00,,,0.00,weatherlink.com 1.10,2013-05-30 14:56:00,
2013-05-30 11:11:00,84.0,68.0,30.09,SSW,211,3.0,7.0,59,0.00,,,0.00,weatherlink.com 1.10,2013-05-30 15:11:00,
2013-05-30 11:26:00,84.4,68.0,30.09,South,173,5.0,7.0,59,0.00,,,0.00,weatherlink.com 1.10,2013-05-30 15:26:00,
2013-05-30 11:41:00,83.9,67.0,30.09,West,279,4.0,8.0,58,0.00,,,0.00,weatherlink.com 1.10,2013-05-30 15:41:00,
2013-05-30 11:56:00,85.3,68.0,30.09,SSW,206,5.0,7.0,57,0.00,,,0.00,weatherlink.com 1.10,2013-05-30 15:56:00,
2013-05-30 12:11:00,86.5,69.0,30.09,SW,231,3.0,10.0,56,0.00,,,0.00,weatherlink.com 1.10,2013-05-30 16:11:00,
2013-05-30 12:26:00,86.5,68.0,30.08,SW,230,1.0,9.0,54,0.00,,,0.00,weatherlink.com 1.10,2013-05-30 16:26:00,
2013-05-30 12:41:00,85.3,68.0,30.07,South,187,6.0,11.0,57,0.00,,,0.00,weatherlink.com 1.10,2013-05-30 16:41:00,
2013-05-30 12:56:00,84.4,67.0,30.08,WSW,238,2.0,9.0,56,0.00,,,0.00,weatherlink.com 1.10,2013-05-30 16:56:00,
2013-05-30 13:11:00,81.0,68.0,30.09,West,274,9.0,14.0,64,0.00,,,0.00,weatherlink.com 1.10,2013-05-30 17:11:00,
2013-05-30 13:26:00,73.2,67.0,30.09,West,267,0.0,11.0,82,0.03,,,0.03,weatherlink.com 1.10,2013-05-30 17:26:00,
2013-05-30 13:41:00,72.1,68.0,30.10,SSW,212,6.0,6.0,87,0.03,,,0.03,weatherlink.com 1.10,2013-05-30 17:41:00,
2013-05-30 13:56:00,71.7,67.0,30.09,South,182,4.0,7.0,86,0.03,,,0.03,weatherlink.com 1.10,2013-05-30 17:56:00,
2013-05-30 14:11:00,71.9,68.0,30.10,SSW,198,4.0,10.0,88,0.03,,,0.03,weatherlink.com 1.10,2013-05-30 18:11:00,
2013-05-30 14:26:00,73.3,68.0,30.09,South,188,2.0,6.0,84,0.00,,,0.03,weatherlink.com 1.10,2013-05-30 18:26:00,
2013-05-30 14:41:00,76.1,69.0,30.09,South,180,2.0,10.0,78,0.00,,,0.03,weatherlink.com 1.10,2013-05-30 18:41:00,
2013-05-30 14:56:00,78.9,68.0,30.08,SSW,202,2.0,4.0,70,0.00,,,0.03,weatherlink.com 1.10,2013-05-30 18:56:00,
2013-05-30 15:11:00,77.2,68.0,30.08,SSW,192,2.0,7.0,73,0.00,,,0.03,weatherlink.com 1.10,2013-05-30 19:11:00,
2013-05-30 15:26:00,76.5,68.0,30.07,SSW,202,0.0,6.0,75,0.00,,,0.03,weatherlink.com 1.10,2013-05-30 19:26:00,
2013-05-30 15:42:00,77.6,69.0,30.07,WSW,247,1.0,3.0,74,0.00,,,0.03,weatherlink.com 1.10,2013-05-30 19:42:00,
2013-05-30 15:57:00,80.2,69.0,30.06,SSW,192,2.0,6.0,69,0.00,,,0.03,weatherlink.com 1.10,2013-05-30 19:57:00,
2013-05-30 16:12:00,81.5,69.0,30.05,South,169,5.0,5.0,66,0.00,,,0.03,weatherlink.com 1.10,2013-05-30 20:12:00,
2013-05-30 16:27:00,82.2,70.0,30.05,South,184,2.0,6.0,67,0.00,,,0.03,weatherlink.com 1.10,2013-05-30 20:27:00,
2013-05-30 16:42:00,83.0,70.0,30.05,SSE,155,4.0,6.0,65,0.00,,,0.03,weatherlink.com 1.10,2013-05-30 20:42:00,
2013-05-30 16:57:00,82.9,70.0,30.05,SE,126,2.0,5.0,66,0.00,,,0.03,weatherlink.com 1.10,2013-05-30 20:57:00,
2013-05-30 17:12:00,83.4,68.0,30.04,SE,128,5.0,8.0,61,0.00,,,0.03,weatherlink.com 1.10,2013-05-30 21:12:00,
2013-05-30 17:27:00,82.5,69.0,30.04,SW,217,5.0,9.0,63,0.00,,,0.03,weatherlink.com 1.10,2013-05-30 21:27:00,
2013-05-30 17:42:00,82.2,68.0,30.02,SE,136,3.0,8.0,63,0.00,,,0.03,weatherlink.com 1.10,2013-05-30 21:42:00,
2013-05-30 17:57:00,82.9,69.0,30.02,South,180,5.0,9.0,64,0.00,,,0.03,weatherlink.com 1.10,2013-05-30 21:57:00,
2013-05-30 18:12:00,83.2,70.0,30.01,SSE,156,4.0,9.0,65,0.00,,,0.03,weatherlink.com 1.10,2013-05-30 22:12:00,
2013-05-30 18:27:00,83.6,70.0,30.01,SSE,153,4.0,7.0,64,0.00,,,0.03,weatherlink.com 1.10,2013-05-30 22:27:00,
2013-05-30 18:42:00,84.1,70.0,30.01,SSE,166,5.0,8.0,62,0.00,,,0.03,weatherlink.com 1.10,2013-05-30 22:42:00,
2013-05-30 18:57:00,84.5,68.0,30.00,South,178,5.0,8.0,58,0.00,,,0.03,weatherlink.com 1.10,2013-05-30 22:57:00,
2013-05-30 19:12:00,84.7,67.0,30.00,South,186,1.0,7.0,56,0.00,,,0.03,weatherlink.com 1.10,2013-05-30 23:12:00,
2013-05-30 19:27:00,84.5,67.0,30.00,South,191,3.0,6.0,55,0.00,,,0.03,weatherlink.com 1.10,2013-05-30 23:27:00,
2013-05-30 19:42:00,83.9,66.0,30.00,South,174,2.0,6.0,55,0.00,,,0.03,weatherlink.com 1.10,2013-05-30 23:42:00,
2013-05-30 19:57:00,83.3,66.0,30.00,South,184,0.0,3.0,56,0.00,,,0.03,weatherlink.com 1.10,2013-05-30 23:57:00,
2013-05-30 20:12:00,82.2,68.0,30.00,South,186,0.0,1.0,62,0.00,,,0.03,weatherlink.com 1.10,2013-05-31 00:12:00,
2013-05-30 20:27:00,79.8,68.0,30.01,South,186,0.0,1.0,67,0.00,,,0.03,weatherlink.com 1.10,2013-05-31 00:27:00,
2013-05-30 20:42:00,76.5,67.0,30.00,South,186,0.0,1.0,72,0.00,,,0.03,weatherlink.com 1.10,2013-05-31 00:42:00,
2013-05-30 20:57:00,74.4,67.0,30.00,South,186,0.0,1.0,77,0.00,,,0.03,weatherlink.com 1.10,2013-05-31 00:57:00,
2013-05-30 21:12:00,73.5,66.0,30.00,South,186,0.0,0.0,78,0.00,,,0.03,weatherlink.com 1.10,2013-05-31 01:12:00,
2013-05-30 21:27:00,72.7,66.0,30.00,South,186,0.0,2.0,79,0.00,,,0.03,weatherlink.com 1.10,2013-05-31 01:27:00,
2013-05-30 21:42:00,72.2,64.0,30.01,South,186,0.0,2.0,76,0.00,,,0.03,weatherlink.com 1.10,2013-05-31 01:42:00,
2013-05-30 21:57:00,72.5,64.0,30.02,South,186,0.0,2.0,75,0.00,,,0.03,weatherlink.com 1.10,2013-05-31 01:57:00,
2013-05-30 22:12:00,72.4,64.0,30.02,SSW,198,1.0,3.0,75,0.00,,,0.03,weatherlink.com 1.10,2013-05-31 02:12:00,
2013-05-30 22:27:00,72.0,64.0,30.02,SSW,194,2.0,3.0,76,0.00,,,0.03,weatherlink.com 1.10,2013-05-31 02:27:00,
2013-05-30 22:42:00,71.3,63.0,30.02,SSW,194,1.0,1.0,76,0.00,,,0.03,weatherlink.com 1.10,2013-05-31 02:42:00,
2013-05-30 22:57:00,71.0,63.0,30.02,SSW,194,0.0,2.0,77,0.00,,,0.03,weatherlink.com 1.10,2013-05-31 02:57:00,
2013-05-30 23:12:00,70.4,63.0,30.02,SSW,194,2.0,2.0,78,0.00,,,0.03,weatherlink.com 1.10,2013-05-31 03:12:00,
2013-05-30 23:27:00,70.3,64.0,30.02,South,186,1.0,4.0,79,0.00,,,0.03,weatherlink.com 1.10,2013-05-31 03:27:00,
2013-05-30 23:42:00,70.1,63.0,30.02,South,180,2.0,5.0,79,0.00,,,0.03,weatherlink.com 1.10,2013-05-31 03:42:00,
2013-05-30 23:57:00,70.1,63.0,30.03,South,183,2.0,7.0,79,0.00,,,0.03,weatherlink.com 1.10,2013-05-31 03:57:00,